This demonstration page uses our WeatherBlox Daily Observations layout. Learn more.

Left ArrowRight Arrow

31.31129, -92.44514

Hourly Observations for December 7, 2020

Temp ( °F °C ) Dew Point ( °F °C ) Humidity (%) Winds ( mph kmh ) Pressure ( in mb ) Visibility ( mi km ) Precip ( " mm )
12:53 am 00:53 Clear 41 5 40 4.4 96 96 NW 7 11 30.06 1018 10 16 0.00 0.00
1:53 am 01:53 Clear 42 5.6 39 3.9 89 89 NW 6 9 30.07 1018 10 16 0.00 0.00
2:53 am 02:53 Clear 41 5 38 3.3 89 89 NW 3 6 30.07 1018 10 16 0.00 0.00
3:53 am 03:53 Clear 39 3.9 37 2.8 93 93 NW 6 9 30.09 1019 10 16 0.00 0.00
4:53 am 04:53 Clear 38 3.3 36 2.2 93 93 NW 6 9 30.09 1019 10 16 0.00 0.00
5:53 am 05:53 Clear 38 3.3 36 2.2 93 93 NW 5 7 30.11 1020 10 16 0.00 0.00
6:53 am 06:53 Clear 37 2.8 35 1.7 93 93 NNW 6 9 30.14 1021 10 16 0.00 0.00
7:53 am 07:53 Sunny 40 4.4 38 3.3 93 93 NW 6 9 30.17 1022 10 16 0.00 0.00
8:53 am 08:53 Sunny 44 6.7 39 3.9 83 83 NW 6 9 30.19 1023 10 16 0.00 0.00
9:53 am 09:53 Sunny 47 8.3 39 3.9 74 74 WNW 5 7 30.20 1023 10 16 0.00 0.00
10:53 am 10:53 Sunny 50 10 40 4.4 68 68 W 7 11 30.19 1023 10 16 0.00 0.00
11:53 am 11:53 Sunny 55 12.8 40 4.4 57 57 NNW 7 11 30.17 1022 10 16 0.00 0.00
12:53 pm 12:53 Sunny 56 13.3 40 4.4 55 55 NW 10 17 30.14 1021 10 16 0.00 0.00
1:53 pm 13:53 Sunny 57 13.9 40 4.4 53 53 WNW 9 15 30.13 1020 10 16 0.00 0.00
2:53 pm 14:53 Sunny 58 14.4 40 4.4 51 51 NW 9 15 30.11 1020 10 16 0.00 0.00
3:53 pm 15:53 Sunny 57 13.9 40 4.4 53 53 WNW 9 15 30.12 1020 10 16 0.00 0.00
4:53 pm 16:53 Sunny 54 12.2 41 5 62 62 WNW 8 13 30.14 1021 10 16 0.00 0.00
5:53 pm 17:53 Clear 49 9.4 41 5 74 74 NW 3 6 30.16 1021 10 16 0.00 0.00
6:53 pm 18:53 Clear 47 8.3 41 5 80 80 Calm 30.18 1022 10 16 0.00 0.00
7:53 pm 19:53 Clear 45 7.2 41 5 86 86 Calm 30.19 1022 10 16 0.00 0.00
8:53 pm 20:53 Clear 45 7.2 41 5 86 86 Calm 30.20 1023 10 16 0.00 0.00
9:53 pm 21:53 Clear 42 5.6 39 3.9 89 89 Calm 30.20 1023 10 16 0.00 0.00
10:53 pm 22:53 Clear 41 5 39 3.9 93 93 Calm 30.21 1023 9 14 0.00 0.00

Powered by AerisWeather